Location: LC-39B
(28.6273°N, 80.6211°W)
Time: 17:22:54
(UTC+00:00)

ISS - Visible Passes

Search period start: 25 September 2016 00:00
Search period end: 05 October 2016 00:00
Orbit: 400 x 410 km, 51.6° (Epoch: 25 September)

Date Brightness Start Highest point End Pass type
(mag) Time Alt. Az. Time Alt. Az. Time Alt. Az.
25 Sep -0.6 09:07:45 20° ENE 09:07:45 20° ENE 09:09:25 10° E visible
25 Sep -1.8 10:40:35 10° WNW 10:43:04 20° SW 10:45:32 10° S visible
26 Sep -1.5 00:03:41 10° SSE 00:05:30 15° SE 00:05:30 15° SE visible
26 Sep -2.5 09:51:53 38° S 09:51:53 38° S 09:54:18 10° SSE visible
27 Sep -2.8 00:46:38 10° SW 00:49:29 58° W 00:49:29 58° W visible
27 Sep -3.1 23:54:40 10° SSW 23:57:49 49° SE 00:00:32 13° ENE visible
28 Sep 0.3 01:33:13 10° WNW 01:33:15 10° WNW 01:33:15 10° WNW visible
29 Sep -1.0 00:39:38 10° W 00:42:14 22° NW 00:44:03 14° N visible
29 Sep -2.3 23:46:55 10° WSW 23:50:02 45° NW 23:53:11 10° NNE visible
01 Oct -0.6 23:40:10 10° W 23:42:23 17° NW 23:44:38 10° N visible
